Location: Unspecified
(0.0000°N, 0.0000°E)
Time: 06:52:19
(UTC+00:00)

Transit 2A - Pass Details

Date: 31 May 2019
Orbit: 598 x 960 km, 66.7° (Epoch: 15 September)

Event Time Altitude Azimuth Distance (km) Brightness Sun altitude
Rises 04:05:48 0° 202° (SSW) 3,291 - -25.8°
Reaches altitude 10° 04:08:08 10° 202° (SSW) 2,413 - -25.3°
Exits shadow 04:12:20 53° 211° (SSW) 1,046 6.3 -24.3°
Maximum altitude 04:13:45 82° 290° (WNW) 888 6.1 -24.0°
Drops below altitude 10° 04:19:53 10° 17° (NNE) 2,617 9.3 -22.6°
Sets 04:22:29 0° 18° (NNE) 3,588 10.1 -22.0°
